星链-4722 (STARLINK-4722 )

导读

STARLINK-4722是美国SpaceX公司星链(Starlink)星座中的一颗低轨通信卫星,于2022年9月11日发射入轨。星链星座旨在为全球提供宽带互联网服务,该卫星采用平板设计,搭载氪工质霍尔推进器,具备自主避撞能力,设计寿命约5-7年,退役后会坠入大气层焚毁。作为星链大规模组网的组成部分,它为全球卫星互联网服务提供基础设施支持。

Basic Information
目录编号:
53775
目录名称:
STARLINK-4722
国际标识:
2022-111C
轨道中心:
EARTH
卫星名称:
星链-4722
卫星全名:
星链-4722 (STARLINK-4722 )
卫星状态:
在轨 (已飞行1373 天)
发射日期:
2022-09-11 UTC
国别 :
美国 (US)
星等 :
--
Orbit Information
数据来源 国际轨道数据 AOE轨道数据
星历时间 2026-06-15T03:16:09+0800
10小时前
查看轨道信息
2026-06-15T08:00:00+0800
5小时前
查看轨道信息
半长轴 6917.912km 6917.907km
偏心率 0.0001131 0.0001652
轨道倾角 53.159° 53.156°
近地点辐角 88.763° 86.995°
升交点赤经 198.316° 197.430°
平近点角 271.349° 264.411°
近地点 538.992km 538.627km
远地点 540.558km 540.913km
周期 95.438分钟 95.438分钟
每日圈数 15.088297 15.088315
Detailed Information
固有亮度:
5
最大亮度:
2.5
卫星平台:
Starlink v1.5
覆盖范围:
全球
运营商:
太空探索技术公司
运营商所在国:
美国
制造商(研发单位):
太空探索技术公司
制造商所在国:
美国
使用方式:
暂无
Satellite Introduction
星链(Starlink)计划是由太空探索技术公司(SpaceX)提出的一个巨型低轨卫星互联网星座项目,计划在2019年至2024年间在太空搭建由约1.2万颗卫星组成的“星链”网络,其中1584颗将部署在地球上空550千米处的近地轨道,并从2020年开始工作。该卫星仍在工作。
2D Orbit Map
3D Orbit Map
Orbit Altitude Analysis Chart
Orbit Inclination Analysis Chart
Orbit Comprehensive Analysis Chart
View Comprehensive Chart